User: anonymous   Login
Location: Unspecified
(0.0000°N, 0.0000°E)
Time: 07:31:18
(UTC+00:00)
Language:

HODOYOSHI 3 - Orbit

View from above orbital plane
View from above orbital plane
View from above satellite
View from above satellite

Ground track
Ground track

The orbit data is extracted from the following two-line orbital elements,

1 40015U 14033F   17148.75164737 +.00000109 +00000-0 +22148-4 0  9993
2 40015 097.8772 042.3610 0036771 341.8478 018.1417 14.78242212158589
Epoch (UTC): 28 May 2017 18:02:22
Eccentricity: 0.0036771
inclination: 97.8772°
perigee height: 609 km
apogee height: 660 km
right ascension of ascending node: 42.3610°
argument of perigee: 341.8478°
revolutions per day: 14.78242212
mean anomaly at epoch: 18.1417°
orbit number at epoch: 15858

The dashed part of the orbit path shows where the satellite is in the earth's shadow,  

DLR